Home   Weather   Råholt   Past weeks
Flag for Norway

Past Weather in Råholt, Norway — Yesterday and Last 2 Weeks

Now
46 °F

Passing clouds.


Feels Like: 44 °F
Forecast: 54 / 43 °F
Wind: 5 mph from East

Location: Oslo Gardermoen Airport

Current Time: Sep 23, 2019 at 7:08:58 am

Latest Report: Sep 23, 2019 at 6:50 am


Visibility: N/A

Pressure: 30.15 "Hg

Humidity: 82%

Dew Point: 41 °F

Location of RåholtLocation

Past Weather in Råholt — Graph

°F

Råholt Temperature Yesterday

Maximum temperature yesterday: 66 °F (at 3:50 pm)
Minimum temperature yesterday: 39 °F (at 7:20 am)
Average temperature yesterday: 52 °F

High & Low Weather Summary for the Past Weeks

 TemperatureHumidityPressure
High75 °F (Sep 21, 4:20 pm)100% (Sep 9, 4:50 am)30.27 "Hg (Sep 9, 4:50 am)
Low37 °F (Sep 19, 6:20 am)31% (Sep 16, 1:50 pm)29.36 "Hg (Sep 15, 2:50 pm)
Average52 °F68%29.92 "Hg
* Reported Sep 8 6:20 am — Sep 23 6:20 am, Råholt. Weather by CustomWeather, © 2019

Note: Actual official high and low records may vary slightly from our data, if they occured in-between our weather recording intervals... More about our weather records

Advertising

Råholt Weather History for the Previous 24 Hours

Scroll right to see more
 ConditionsComfort  
Time TempWeatherWind HumidityBarometerVisibility
6:20 am
Mon, Sep 23
46 °FPassing clouds.8 mph82%30.15 "HgN/A
5:50 am46 °FPassing clouds.3 mph87%30.15 "HgN/A
5:20 am46 °FPassing clouds.3 mph87%30.15 "HgN/A
4:50 am46 °FPassing clouds.6 mph87%30.18 "HgN/A
4:20 am48 °FOvercast.5 mph76%30.18 "HgN/A
3:50 am48 °FOvercast.6 mph82%30.18 "HgN/A
3:20 am48 °FPassing clouds.6 mph76%30.18 "HgN/A
2:50 am48 °FPassing clouds.6 mph76%30.18 "HgN/A
2:20 am48 °FPassing clouds.5 mph76%30.18 "HgN/A
1:50 am48 °FPassing clouds.8 mph76%30.18 "HgN/A
1:20 am48 °FPassing clouds.9 mph76%30.18 "HgN/A
12:50 am48 °FPassing clouds.9 mph82%30.18 "HgN/A
12:20 am48 °FPassing clouds.8 mph82%30.18 "HgN/A
11:50 pm
Sun, Sep 22
48 °FPassing clouds.8 mph82%30.15 "HgN/A
11:20 pm48 °FPassing clouds.9 mph82%30.15 "HgN/A
10:50 pm50 °FPassing clouds.10 mph76%30.15 "HgN/A
10:20 pm50 °FPassing clouds.10 mph76%30.15 "HgN/A
9:50 pm50 °FPassing clouds.9 mph76%30.12 "HgN/A
9:20 pm52 °FPassing clouds.8 mph77%30.12 "HgN/A
8:50 pm52 °FPassing clouds.8 mph77%30.12 "HgN/A
8:20 pm54 °FPassing clouds.8 mph77%30.09 "HgN/A
7:50 pm54 °FPassing clouds.8 mph72%30.09 "HgN/A
7:20 pm54 °FPassing clouds.9 mph77%30.07 "HgN/A
6:50 pm57 °FPartly sunny.12 mph67%30.07 "HgN/A
6:20 pm61 °FPartly sunny.13 mph63%30.04 "HgN/A
5:50 pm64 °FScattered clouds.12 mph52%30.04 "HgN/A
5:20 pm64 °FScattered clouds.9 mph52%30.04 "HgN/A
4:50 pm66 °FScattered clouds.10 mph49%30.04 "HgN/A
4:20 pm66 °FPassing clouds.12 mph49%30.01 "HgN/A
3:50 pm66 °FPassing clouds.8 mph49%30.01 "HgN/A
3:20 pm64 °FPassing clouds.6 mph56%30.01 "HgN/A
2:50 pm64 °FPassing clouds.7 mph56%30.01 "HgN/A
2:20 pm64 °FPassing clouds.6 mph52%30.01 "HgN/A
1:50 pm63 °FPassing clouds.7 mph56%30.04 "HgN/A
1:20 pm63 °FSunny.7 mph56%30.04 "Hg10 mi
12:50 pm61 °FPassing clouds.7 mph59%30.04 "HgN/A
12:20 pm61 °FPassing clouds.5 mph63%30.04 "HgN/A
11:50 am59 °FPassing clouds.6 mph68%30.04 "HgN/A
11:20 am57 °FPassing clouds.5 mph67%30.04 "HgN/A
10:50 am55 °FPassing clouds.5 mph72%30.04 "HgN/A
10:20 am52 °FPassing clouds.5 mph82%30.04 "HgN/A
9:50 am48 °FFog.3 mph87%30.04 "HgN/A
9:20 am50 °FFog.3 mph88%30.01 "HgN/A
8:50 am46 °FFog.3 mph87%30.01 "HgN/A
8:20 am45 °FFog.3 mph93%30.01 "HgN/A
7:50 am41 °FFog.3 mph87%30.01 "HgN/A
7:20 am39 °FFog.3 mph93%29.98 "HgN/A
Weather by CustomWeather, © 2019

See weather overview